sat.trackr.live / text

‹ back to catalog

STARLINK-1364

NORAD 45589 · 2020-025BL

PAYLOAD ACTIVE UNKNOWN

§ Identity

Operator
Country
US
Launch date
2020-04-22
Launch site
AFETR
Launch vehicle
Mass (kg)
RCS (m²)

Purposes: comms

External: N2YO · Heavens-Above · Gunter

§ Orbital elements

Epoch: 2026-05-25T06:00:02.000160Z

Period
91.95 min
Inclination
53.0427°
Eccentricity
0.0001801
Mean motion
15.65991892 rev/d
Perigee alt
369.2 km
Apogee alt
371.6 km
Semi-major
6,748.5 km
B*
1.7167e-2
RAAN
52.3811°
Arg perigee
82.0331°
Mean anomaly
324.6470°
Rev number
589

§ Raw data

STARLINK-13641 45589U 20025BL  26145.25002315  .02037133  00000+0  17167-1 0  99972 45589  53.0427  52.3811 0001801  82.0331 324.6470 15.65991892  5894

JSON: /api/v1/satellites/45589 · /tle

For live sub-satellite position, see the globe view (requires WebGL).

§ Visibility from observer

Set your observer location to see the next 7 days of passes ≥ 10°. The values pass through the URL so the page stays shareable.

No JS? Fill the form by hand. The geolocation button needs JavaScript.